RADUGA 5 [-]

Last updated on Jan. 23, 2021, 7:21 a.m. UTC

1 11343U 79035A   21022.94546241 -.00000053  00000-0  00000-0 0  9997
2 11343  10.0688 305.4933 0004611 128.1151 103.3455  1.00247182109584
UTC
Height (km)
Latitude
Longitude
Inclination
Orbital Period
UTC large
Height (km)
Speed (km/s)
/
Latitude / Longitude
Inclination (degrees)
Orbital Period (minutes)
Azimuth
Elevation
Range (km)
Doppler Factor
iOS Compass Heading
iOS Angle

Next 30 passes for location: Hong Kong

Rise time Rise Azimuth (degrees) Set time Set Azimuth (degrees) Duration Max altitude (degrees)

No matching passes for this satellites